EXPRESS 103

Last updated on Sun Apr 12 2026 00:02:55 GMT+0000 (Coordinated Universal Time)

1 45985U 20053A 26101.53984413 -.00000279 00000+0 00000+0 0 9995 2 45985 0.0160 261.4840 0000030 117.1341 112.0001 1.00271903 20983
UTC large
Height (km)
Speed (km/s)
/
Latitude / Longitude
Inclination (degrees)
Orbital Period (minutes)
Azimuth
Elevation
Range (km)
Doppler Factor

Next 0 passes for location: London (51.5072 / 0.1276)

Sorry there are no passes over London.
EXPRESS 103